CW0699 Weather Reports


time (UTC)temp
F
wind
direction
speed
knots
gust
knots
rain 1hr
in
rain 24hr
in
rain mn
in
humidity
%
barometer
mb
20260504235200 72 133 0.0 0.9 0.00 0.00 0.00 35 1015.9
20260504234359 73 259 0.0 0.0 0.00 0.00 0.00 33 1015.9
20260504233600 74 259 0.0 0.0 0.00 0.00 0.00 31 1015.9
20260504232759 75 117 0.0 0.0 0.00 0.00 0.00 31 1015.9
20260504231159 78 117 0.0 1.7 0.00 0.00 0.00 27 1015.9
20260504230359 79 184 0.0 0.9 0.00 0.00 0.00 24 1016.0
20260504225559 78 183 0.0 3.5 0.00 0.00 0.00 24 1016.0
20260504224759 79 139 0.0 3.5 0.00 0.00 0.00 23 1016.0
20260504222400 80 139 0.0 3.5 0.00 0.00 0.00 25 1016.1
20260504221600 80 242 0.9 3.5 0.00 0.00 0.00 22 1016.0
20260504220759 79 169 0.0 1.7 0.00 0.00 0.00 24 1016.1
20260504220000 80 243 0.0 0.9 0.00 0.00 0.00 24 1016.0
20260504214359 79 135 0.0 3.5 0.00 0.00 0.00 25 1016.1
20260504213559 79 131 0.0 0.9 0.00 0.00 0.00 22 1016.1
20260504212800 79 225 0.0 1.7 0.00 0.00 0.00 21 1016.1
20260504212000 78 252 0.9 2.6 0.00 0.00 0.00 23 1016.1
20260504211159 78 133 0.0 3.5 0.00 0.00 0.00 23 1016.0
20260504210359 78 126 0.0 2.6 0.00 0.00 0.00 23 1016.7
20260504205559 79 290 0.9 2.6 0.00 0.00 0.00 22 1016.2
20260504204000 79 188 0.9 2.6 0.00 0.00 0.00 25 1016.3
20260504203159 79 311 0.0 1.7 0.00 0.00 0.00 24 1016.4
20260504201600 79 148 0.0 1.7 0.00 0.00 0.00 27 1016.7
20260504200759 78 98 0.9 2.6 0.00 0.00 0.00 24 1016.7
20260504200003 78 123 0.0 1.7 0.00 0.00 0.00 24 1016.8
20260504195201 77 47 0.9 4.3 0.00 0.00 0.00 25 1016.8
20260504194401 77 232 0.0 1.7 0.00 0.00 0.00 25 1016.9
20260504193601 76 116 0.0 3.5 0.00 0.00 0.00 28 1016.9
20260504192801 76 170 0.9 2.6 0.00 0.00 0.00 26 1017.1
20260504192001 76 342 1.7 2.6 0.00 0.00 0.00 26 1017.1
20260504191200 76 242 1.7 3.5 0.00 0.00 0.00 29 1017.2
20260504190400 75 114 0.0 0.9 0.00 0.00 0.00 30 1017.3
20260504184759 75 274 0.9 3.5 0.00 0.00 0.00 30 1017.7
20260504183959 75 197 0.0 2.6 0.00 0.00 0.00 29 1017.8
20260504183159 75 346 0.9 2.6 0.00 0.00 0.00 28 1017.8
20260504182358 75 6 0.0 3.5 0.00 0.00 0.00 29 1018.0
20260504181559 74 33 0.9 4.3 0.00 0.00 0.00 27 1018.0
20260504180800 74 285 0.0 2.6 0.00 0.00 0.00 28 1018.1
20260504175201 74 291 0.9 2.6 0.00 0.00 0.00 28 1018.3
20260504173600 73 267 0.0 2.6 0.00 0.00 0.00 30 1018.5
20260504172802 73 354 0.9 2.6 0.00 0.00 0.00 29 1018.5
20260504170401 73 75 0.0 1.7 0.00 0.00 0.00 34 1018.9
20260504150400 71 155 0.0 1.7 0.00 0.00 0.00 36 1020.0
20260504130359 50 246 0.0 0.0 0.00 0.00 0.00 73 1020.1
20260504110359 39 246 0.0 0.0 0.00 0.00 0.00 78 1019.6
20260504081558 41 246 0.0 0.0 0.00 0.00 0.00 80 1019.5
20260504080758 41 246 0.0 0.0 0.00 0.00 0.00 81 1019.5
20260504070359 42 246 0.0 0.0 0.00 0.00 0.00 82 1019.7
20260504050358 44 246 0.0 0.0 0.00 0.00 0.00 82 1020.3
20260504045602 44 246 0.0 0.0 0.00 0.00 0.00 82 1020.3
20260504044801 44 246 0.0 0.0 0.00 0.00 0.00 82 1020.3
20260504044001 45 246 0.0 0.0 0.00 0.00 0.00 82 1020.5
20260504043202 45 246 0.0 0.0 0.00 0.00 0.00 82 1020.4
20260504042401 45 246 0.0 0.0 0.00 0.00 0.00 82 1020.4
20260504041601 45 246 0.0 0.0 0.00 0.00 0.00 82 1020.3
20260504040801 46 246 0.0 0.0 0.00 0.00 0.00 81 1020.3
20260504040006 46 246 0.0 0.0 0.00 0.00 0.00 80 1020.2
20260504035201 46 246 0.0 0.0 0.00 0.00 0.00 80 1020.4
20260504033600 47 246 0.0 0.0 0.00 0.00 0.00 80 1020.4
20260504031201 48 246 0.0 0.0 0.00 0.00 0.00 76 1020.4
20260504030400 48 246 0.0 0.0 0.00 0.00 0.00 76 1020.4
20260504025600 49 246 0.0 0.0 0.00 0.00 0.00 74 1020.2
20260504024800 49 245 0.0 0.0 0.00 0.00 0.00 74 1020.2
20260504024000 50 246 0.0 0.0 0.00 0.00 0.00 73 1020.3
20260504023159 50 247 0.0 0.0 0.00 0.00 0.00 72 1020.1
20260504022359 50 246 0.0 0.0 0.00 0.00 0.00 70 1020.0
20260504021600 51 246 0.0 0.0 0.00 0.00 0.00 68 1019.9
20260504020759 51 247 0.0 0.0 0.00 0.00 0.00 68 1019.9
20260504015201 52 246 0.0 0.0 0.00 0.00 0.00 65 1019.5
20260504013601 53 247 0.0 0.0 0.00 0.00 0.00 61 1019.5
20260504012801 54 247 0.0 0.0 0.00 0.00 0.00 60 1019.2
20260504011200 56 246 0.0 0.0 0.00 0.00 0.00 55 1019.1
20260504010401 57 247 0.0 0.0 0.00 0.00 0.00 52 1018.9
20260504005600 58 246 0.0 0.0 0.00 0.00 0.00 51 1018.9
20260504004759 59 246 0.0 0.0 0.00 0.00 0.00 48 1018.9
20260504003159 61 246 0.0 0.0 0.00 0.00 0.00 45 1018.8
20260504001559 63 246 0.0 0.0 0.00 0.00 0.00 41 1018.7